This demonstration page uses our WeatherBlox Daily Observations layout. Learn more.

Left ArrowRight Arrow

Hourly Observations for December 12, 2021

Temp ( °F °C ) Dew Point ( °F °C ) Humidity (%) Winds ( mph kmh ) Pressure ( in mb ) Visibility ( mi km ) Precip ( " mm )
12:59 am 00:59 Cloudy with Light Rain 59 15 54 12.2 83 83 WNW 23 37 29.89 1012 5 8 0.04 1.02
1:27 am 01:27 Cloudy with Light Rain 55 12.8 49 9.4 80 80 WNW 12 19 29.91 1013 10 16 0.01 0.25
1:59 am 01:59 Cloudy with Light Rain 56 13.3 49 9.4 77 77 WNW 8 13 29.95 1014 10 16 0.01 0.25
2:59 am 02:59 Cloudy 54 12.2 40 4.4 59 59 N 16 26 29.97 1015 10 16 0.00 0.00
3:59 am 03:59 Cloudy 52 11.1 37 2.8 57 57 N 14 22 30.04 1017 10 16 0.00 0.00
4:59 am 04:59 Cloudy with Light Rain 49 9.4 32 0 52 52 N 21 33 30.06 1018 10 16 0.00 0.00
5:59 am 05:59 Cloudy 49 9.4 33 0.6 55 55 N 16 26 30.14 1021 10 16 0.00 0.00
6:59 am 06:59 Cloudy 48 8.9 32 0 54 54 N 16 26 30.19 1022 10 16 0.00 0.00
7:59 am 07:59 Mostly Sunny 46 7.8 27 -2.8 47 47 N 15 24 30.23 1024 10 16 0.00 0.00
8:59 am 08:59 Mostly Sunny 47 8.3 27 -2.8 46 46 NNW 12 19 30.27 1025 10 16 0.00 0.00
9:59 am 09:59 Mostly Sunny 49 9.4 26 -3.3 41 41 NNW 16 26 30.30 1026 10 16 0.00 0.00
10:59 am 10:59 Mostly Sunny 50 10 20 -6.7 30 30 NNW 18 30 30.31 1027 10 16 0.00 0.00
11:59 am 11:59 Sunny 51 10.6 22 -5.6 32 32 NNW 13 20 30.29 1026 10 16 0.00 0.00
12:59 pm 12:59 Sunny 51 10.6 19 -7.2 28 28 N 14 22 30.31 1026 10 16 0.00 0.00
1:59 pm 13:59 Sunny 51 10.6 21 -6.1 31 31 N 12 19 30.29 1026 10 16 0.00 0.00
2:59 pm 14:59 Sunny 51 10.6 21 -6.1 31 31 NNE 9 15 30.32 1027 10 16 0.00 0.00
3:59 pm 15:59 Sunny 50 10 22 -5.6 33 33 NNE 6 9 30.33 1027 10 16 0.00 0.00
4:59 pm 16:59 Mostly Clear 45 7.2 26 -3.3 48 48 Calm 30.34 1028 10 16 0.00 0.00
5:59 pm 17:59 Mostly Clear 40 4.4 28 -2.2 63 63 Calm 30.35 1028 10 16 0.00 0.00
6:59 pm 18:59 Clear 37 2.8 29 -1.7 73 73 Calm 30.36 1028 10 16 0.00 0.00
7:59 pm 19:59 Clear 37 2.8 28 -2.2 70 70 Calm 30.37 1028 10 16 0.00 0.00
8:59 pm 20:59 Clear 36 2.2 28 -2.2 73 73 S 3 6 30.37 1028 10 16 0.00 0.00
9:59 pm 21:59 Clear 37 2.8 28 -2.2 70 70 Calm 30.38 1029 10 16 0.00 0.00
10:59 pm 22:59 Clear 34 1.1 29 -1.7 82 82 Calm 30.39 1029 10 16 0.00 0.00
11:59 pm 23:59 Clear 36 2.2 29 -1.7 76 76 SSW 3 6 30.40 1029 10 16 0.00 0.00

Powered by AerisWeather